www.pogodaiklimat.ru

Погода и климат >> Архив погоды >> Кувейт >> Абдали


ПОГОДА в Абдали

  • Прогноз погоды в Абдали
  • Монитор погоды в Абдали

АРХИВ ПОГОДЫ в Абдали

Время (UTC), дата Ветер
(напр.,м/с)
 
Видим.   Явления Облачность Т
(С)
Тd
(С)
f
(%)
Тe
(С)
Тes
(С)
Комфортность P
(гПа)
Po
(гПа)
Тmin
(С)
Tmax
(С)
R
(мм)
R24
(мм)
S
(см)
00 17.01 В 1 3100 м дым н/о +12.4
03 17.01 С 2 3100 м дым н/о +12.4
06 17.01 С 10 3600 м дымка н/о +13.9
09 17.01 С 11 1300 м дым н/о +15.2
12 17.01 С 8 2200 м дым н/о +16.3 -33.9 2 +15 +15 1015.2 1015.0
18 17.01 ЮЗ 2 3500 м дымка н/о +10.1
00 18.01 З 3 2900 м дымка н/о +9.9
06 18.01 СЗ 4 1600 м дымка н/о +11.8
09 18.01 СВ 4 2100 м дымка н/о +14.4
12 18.01 С 4 4200 м дым н/о +15.2
15 18.01 С 3 20 км н/о +12.2
18 18.01 СЗ 2 20 км н/о +7.6
21 18.01 СЗ 2 20 км н/о +5.9 +5.8 +15.4
00 19.01 СЗ 2 20 км н/о +4.3
03 19.01 С 2 20 км н/о +3.0
06 19.01 С 2 17 км н/о +8.0
09 19.01 СВ 3 19 км н/о +13.6 -26.1 5 +13 +13 1023.6 1024.0
12 19.01 СВ 3 19 км н/о +14.2 -28.0 4 +14 +14 1022.5 1023.0
15 19.01 С 2 20 км н/о +10.1
18 19.01 СЗ 1 20 км н/о +5.7
21 19.01 СЗ 2 19 км н/о +4.0 +1.8 +14.6
00 20.01 СЗ 3 18 км н/о +2.6
03 20.01 СЗ 2 18 км н/о +2.3
06 20.01 С 3 16 км н/о +8.0 -37.6 2 +7 +7 1027.3 1027.0
09 20.01 СВ 4 20 км н/о +14.2 -26.4 4 +14 +14 1025.5 1026.0
12 20.01 СВ 4 20 км н/о +15.3 -27.2 4 +15 +15 1023.5 1024.0
15 20.01 С 2 20 км н/о +11.2
18 20.01 С 2 20 км н/о +8.0
21 20.01 С 2 20 км н/о +6.2 +1.5 +16.1
00 21.01 СЗ 2 16 км н/о +5.4
03 21.01 С 2 11 км н/о +3.8
06 21.01 СЗ 3 17 км н/о +9.3
09 21.01 С 3 20 км н/о +13.2 -29.8 3 +13 +13 1023.3 1023.0
12 21.01 СВ 3 20 км н/о +16.0 -1.1 31 +16 +16 1020.7 1021.0
15 21.01 СВ 1 19 км н/о +11.6 +1.0 48 +13 +13 1021.4 1021.0
18 21.01 СЗ 1 19 км н/о +9.4 +0.5 54 +10 +10 1020.9 1021.0
21 21.01 С 1 19 км н/о +6.9 +0.6 64 +6 +6 1020.7 1021.0 +3.7 +18.6
00 22.01 С 1 17 км н/о +4.9 +1.2 77 +5 +5 1020.4 1020.0
03 22.01 СЗ 1 10 км н/о +5.2 +1.5 77 +4 +4 1020.6 1021.0
06 22.01 СВ 2 14 км н/о +10.4 +1.4 54 +10 +10 1021.4 1021.0
09 22.01 СВ 3 14 км н/о +15.9 +1.9 39 +16 +16 1019.7 1020.0
12 22.01 СВ 2 19 км н/о +17.4 -1.2 28 +18 +18 1018.4 1018.0
15 22.01 В 1 17 км н/о +12.5 +0.6 44 +13 +13 1018.8 1019.0
18 22.01 СЗ 2 15 км н/о +9.0 +1.1 58 +8 +8 1019.1 1019.0
21 22.01 СЗ 1 17 км н/о +7.5 +1.7 67 +7 +7 1019.4 1019.0 +4.3 +18.3
00 23.01 СЗ 1 9000 м дымка н/о +6.5 +2.6 76 +7 +7 1018.9 1019.0
03 23.01 С 1 6000 м дымка н/о +5.1 +2.4 83 +4 +4 1019.1 1019.0
06 23.01 С 1 9000 м дымка н/о +10.1 +3.5 64 +10 +10 1020.5 1021.0
09 23.01 В 2 17 км н/о +18.6 +2.2 33 +20 +20 1018.5 1019.0
12 23.01 ЮВ 2 7000 м дым н/о +20.2 +1.2 28 +21 +21 комфорт 1017.0 1017.0
15 23.01 ЮВ 1 8000 м дымка н/о +14.1 0.0 38 +15 +15 1018.1 1018.0
18 23.01 СЗ 1 7000 м дымка н/о +11.2 +2.1 53 +11 +11 1019.1 1019.0
21 23.01 СЗ 1 8000 м дымка н/о +9.3 +2.3 62 +9 +9 1019.5 1020.0 +4.4 +20.8

 

Местоположение метеостанции Абдали (Кувейт): широта 30.08 долгота 47.70 высота над уровнем моря 70 м.

В архиве по умолчанию представлена погода в Абдали за последнюю неделю. Архивные данные за месяц целиком и за предыдущие месяцы, начиная с января 2011 года, Вы можете получить, выбрав интересующий диапазон дат из раскрывающегося списка и нажав кнопку "Ввод!".


*Определитесь, кто Вы:
робот инопланетянин человек

Внимание! Время в таблицах - всемирное. Для получения местного времени необходимо прибавить поправку, которая равна 3 ч.

Смотрите также архив погоды в соседних городах и на ближайших метеорологических станциях:

Погода на Метеостанции Sabriyah (Кувейт) (39 км)
Погода на Метеостанции Mintribah (Кувейт) (43 км)
Погода в Басре аэропорт (Ирак) (50 км)
Погода на Метеостанции Jal Aliyah (Кувейт) (54 км)
Погода в Басре (Ирак) (55 км)
Погода в Абадане (Иран) (62 км)
Погода на Бубияне (Кувейт) (74 км)
Погода в Эль-Фао (Ирак) (78 км)
Погода в Эль-Джахра (Кувейт) (85 км)
Погода Остров Файлака (Кувейт) (88 км)

Пояснения к столбцам:

Ветер - указаны скорость ветра в м/с - средняя за 10 мин, порывы в срок и между сроками (в фигурных скобках) и направление, откуда дует ветер: С - северный, СВ - северо-восточный, В - восточный, ЮВ - юго-восточный, Ю - южный, ЮЗ - юго-западный, З - западный, СЗ - северо-западный.
Видимость - горизонтальная дальность видимости в метрах или километрах. При видимости от 1 до 10 км при отсутствии осадков обычно наблюдается дымка, при ухудшении видимости до 1 км и менее - туман. В сухую погоду видимость может ухудшаться дымом, пылью или мглою.
Явления - указаны атмосферные явления, наблюдавшиеся в срок или в последний час перед сроком; фигурными скобками обозначены явления, наблюдавшиеся между сроками (за 1-3 часа до срока); квадратными скобками обозначены град или гололедные отложения с указанием их диаметра в мм.
Облачность - указаны через наклонную черту общая и нижняя облачность в баллах и высота нижней границы облаков в метрах; квадратными скобками обозначены формы облаков: Ci - перистые, Cs - перисто-слоистые, Cc - перисто-кучевые, Ac - высококучевые, As - высокослоистые, Sc - слоисто-кучевые, Ns - слоисто-дождевые, Cu - кучевые, Cb - кучево-дождевые. Подробнее классификацию облаков см. в Атласе облаков (PDF).
T - Температура воздуха - температура, измеренная на высоте 2 м над землей.
Td - Температура точки росы - температура, при понижении до которой содержащийся в воздухе водяной пар достигнет насыщения.
f - Относительная влажность воздуха - влажноcть воздуха, измеренная на высоте 2 м над землей.
Te - Эффективная температура - температура, которую ощущает одетый по сезону человек в тени. Характеристика душности погоды. При расчете учитывается влияние влажности воздуха и скорости ветра на теплоощущения человека.
Tes - Эффективная температура на солнце - температура, которую ощущает человек, с поправкой на солнечный нагрев. Характеристика знойности погоды. Зависит от высоты солнца над горизонтом, облачности и скорости ветра. Ночью, в пасмурную погоду, а также при ветре 12 м/с и более поправка равна нулю.
P - Атмосферное давление - приведенное к уровню моря атмосферное давление.
Po - Атмосферное давление - измеренное на уровне метеостанции атмосферное давление.
Tmin - Минимальная температура - минимум температуры воздуха на высоте 2 м над землей.
Tmax - Максимальная температура - максимум температуры воздуха на высоте 2 м над землей.
R - Количество осадков - Количество выпавших осадков за период времени, мм. При наведении курсора мыши на число - период времени, за который выпало указанное количество осадков.
R24 - Количество осадков - Количество выпавших осадков за 24 часа, мм.
S - Снежный покров - Высота снежного покрова, см. При наведении курсора мыши на число - состояние снежного покрова и степень покрытия местности в баллах.